[TLELIST] Archives

 

[TLELIST] Current TLEs

November 24th 2023 PDT

HST 1 20580U 90037B 23327.71192130 .00007677 00000-0 39113-3 0 9992 2 20580 28.4696 285.3469 0002499 307.6848 78.9138 15.14927818645668 ISS (ZARYA) 1 25544U 98067A 23328.50968601 .00025151 00000-0 45277-3 0 9995 2 25544 51.6431 254.4591 0000832 346.4532 172.6917 15.49652396426658 CXO 1 25867U 99040B 23329.25164999 .00000488 00000-0 00000-0 0 9994 2 25867 37.7275 176.3330 9033650 279.1471 359.9818 0.37812041 13790 ...Continue Reading

[TLELIST] Current TLEs

November 24th 2023 PDT

HST 1 20580U 90037B 23327.71192130 .00007677 00000-0 39113-3 0 9992 2 20580 28.4696 285.3469 0002499 307.6848 78.9138 15.14927818645668 ISS (ZARYA) 1 25544U 98067A 23328.50968601 .00025151 00000-0 45277-3 0 9995 2 25544 51.6431 254.4591 0000832 346.4532 172.6917 15.49652396426658 CXO 1 25867U 99040B 23329.25164999 .00000488 00000-0 00000-0 0 9994 2 25867 37.7275 176.3330 9033650 279.1471 359.9818 0.37812041 13790 ...Continue Reading

[TLELIST] Current TLEs

November 23rd 2023 PDT

HST 1 20580U 90037B 23326.72000000 .00007646 00000-0 38966-3 0 9997 2 20580 28.4698 291.9641 0002466 295.5682 70.6009 15.14912842645511 ISS (ZARYA) 1 25544U 98067A 23327.34619826 .00029136 00000-0 52397-3 0 9996 2 25544 51.6432 260.2230 0000586 338.4061 165.7726 15.49598018426479 CXO 1 25867U 99040B 23329.25164999 .00000488 00000-0 00000+0 0 9993 2 25867 37.7275 176.3330 9033650 279.1471 359.9818 0.37812041 24949 ...Continue Reading

[TLELIST] Current TLEs

November 22nd 2023 PDT

HST 1 20580U 90037B 23326.16114583 .00006476 00000-0 32865-3 0 9999 2 20580 28.4697 295.6919 0002452 288.7938 263.4982 15.14903039645691 ISS (ZARYA) 1 25544U 98067A 23326.37902759 .00017742 00000-0 32340-3 0 9994 2 25544 51.6432 265.0091 0000878 322.7179 182.5809 15.49533366426325 CXO 1 25867U 99040B 23329.25099932 .00000488 00000-0 00000+0 0 9997 2 25867 37.7281 176.3450 9033652 279.1353 359.8939 0.37813386 24946 ...Continue Reading

[TLELIST] Current TLEs

November 21st 2023 PDT

HST 1 20580U 90037B 23325.15375147 .00004384 00000-0 21938-3 0 9997 2 20580 28.4700 302.4118 0002456 276.7214 170.6752 15.14888597645530 ISS (ZARYA) 1 25544U 98067A 23325.21736263 .00026225 00000-0 47429-3 0 9991 2 25544 51.6423 270.7612 0000973 310.2609 190.7080 15.49496228426140 CXO 1 25867U 99040B 23323.96475560 .00000830 00000-0 00000-0 0 9996 2 25867 37.6703 177.0577 9029864 278.5648 0.1916 0.37811884 13762 ...Continue Reading

[TLELIST] Current TLEs

November 21st 2023 PDT

HST 1 20580U 90037B 23325.15375147 .00004384 00000-0 21938-3 0 9997 2 20580 28.4700 302.4118 0002456 276.7214 170.6752 15.14888597645530 ISS (ZARYA) 1 25544U 98067A 23325.21736263 .00026225 00000-0 47429-3 0 9991 2 25544 51.6423 270.7612 0000973 310.2609 190.7080 15.49496228426140 CXO 1 25867U 99040B 23323.96475560 .00000830 00000-0 00000-0 0 9996 2 25867 37.6703 177.0577 9029864 278.5648 0.1916 0.37811884 13762 ...Continue Reading

[TLELIST] Current TLEs

November 21st 2023 PDT

HST 1 20580U 90037B 23325.15375147 .00004384 00000-0 21938-3 0 9997 2 20580 28.4700 302.4118 0002456 276.7214 170.6752 15.14888597645530 ISS (ZARYA) 1 25544U 98067A 23325.21736263 .00026225 00000-0 47429-3 0 9991 2 25544 51.6423 270.7612 0000973 310.2609 190.7080 15.49496228426140 CXO 1 25867U 99040B 23323.96475560 .00000830 00000-0 00000-0 0 9996 2 25867 37.6703 177.0577 9029864 278.5648 0.1916 0.37811884 13762 ...Continue Reading

[TLELIST] Current TLEs

November 20th 2023 PDT

HST 1 20580U 90037B 23323.71941375 .00004441 00000-0 22245-3 0 9995 2 20580 28.4702 311.9792 0002475 259.7773 269.7686 15.14877026645055 ISS (ZARYA) 1 25544U 98067A 23324.37934042 .00011442 00000-0 21212-3 0 9999 2 25544 51.6431 274.9053 0000963 328.9691 174.3348 15.49459132426014 CXO 1 25867U 99040B 23323.96475560 .00000830 00000-0 00000-0 0 9996 2 25867 37.6703 177.0577 9029864 278.5648 0.1916 0.37811884 13762 ...Continue Reading

[TLELIST] Current TLEs

November 20th 2023 PDT

HST 1 20580U 90037B 23323.71941375 .00004441 00000-0 22245-3 0 9995 2 20580 28.4702 311.9792 0002475 259.7773 269.7686 15.14877026645055 ISS (ZARYA) 1 25544U 98067A 23324.37934042 .00011442 00000-0 21212-3 0 9999 2 25544 51.6431 274.9053 0000963 328.9691 174.3348 15.49459132426014 CXO 1 25867U 99040B 23323.96475560 .00000830 00000-0 00000-0 0 9996 2 25867 37.6703 177.0577 9029864 278.5648 0.1916 0.37811884 13762 ...Continue Reading

[TLELIST] Current TLEs

November 19th 2023 PDT

HST 1 20580U 90037B 23322.73090137 .00004263 00000-0 21320-3 0 9992 2 20580 28.4704 318.5727 0002497 248.2240 279.6926 15.14868931644909 ISS (ZARYA) 1 25544U 98067A 23323.41207948 .00052143 00000-0 93316-3 0 9998 2 25544 51.6434 279.6956 0001119 330.7912 173.5659 15.49460790425862 CXO 1 25867U 99040B 23323.96475560 .00000830 00000-0 00000-0 0 9996 2 25867 37.6703 177.0577 9029864 278.5648 0.1916 0.37811884 13762 ...Continue Reading
  • This mailing list is a public mailing list - anyone may join or leave, at any time.
  • This mailing list is announce-only.

International Space Station (ISS) / Hubble Space Telescope (HST) / Chandra X-Ray Observatory Orbital Data via EMAIL

Privacy Policy:

Private list